Location: �terpigny
(49.8910°N, 2.9249°E)
Time: 10:59:29
(UTC+00:00)

Okean 1-7 Rocket - Pass Details

Date: 24 October 2021
Orbit: 617 x 648 km, 82.5° (Epoch: 30 November)

Event Time Altitude Azimuth Distance (km) Brightness Sun altitude
Rises 17:50:43 0° 349° (N) 2,910 7.1 -12.1°
Reaches altitude 10° 17:52:57 10° 348° (NNW) 2,002 6.3 -12.4°
Maximum altitude 17:57:24 82° 261° (W) 637 3.7 -13.2°
Drops below altitude 10° 18:01:50 10° 175° (S) 2,002 6.1 -13.9°
Sets 18:04:04 0° 174° (S) 2,910 7.0 -14.2°
